Location: Antioch Church
(34.9543°N, 88.5145°W)
Time: 00:14:41
(UTC+00:00)

NOSS 7 (H) - Pass Details

Date: 11 December 2019
Orbit: 380 x 1785 km, 63.3° (Epoch: 24 January)

Event Time Altitude Azimuth Distance (km) Brightness Sun altitude
Rises 00:14:59 0° 209° (SSW) 2,814 9.1 -18.4°
Reaches altitude 10° 00:17:29 10° 208° (SSW) 1,745 8.0 -18.9°
Maximum altitude 00:21:12 84° 122° (ESE) 443 4.2 -19.6°
Enters shadow 00:21:25 76° 58° (ENE) 449 4.1 -19.7°
